Flag for Japan Weather past 2 weeks in Nagano, Japan

Now
71 °F

Overcast.


Feels Like: 74 °F
Forecast: 63 / 84 °F
Wind: 8 mph from West

Location: Nagano

Current Time: Jul 6, 2015 at 4:34:53 PM

Latest Report: Jul 6, 2015 at 3:00 PM


Visibility: 9 mi

Pressure: 29.85 "Hg

Humidity: 71%

Dew point: 61 °F

Location of NaganoLocation

Historic Weather in Nagano — Graph

°F

Nagano temperature yesterday

Maximum temperature yesterday: 76 °F (at 4:00 PM)
Minimum temperature yesterday: 62 °F (at 4:00 AM)
Average temperature yesterday: 68 °F

Past Weeks' High & Low Weather Summary

 TemperatureHumidityPressure
High87 °F (Jun 25, 4:00 PM)98% (Jun 21, 11:00 PM)29.93 "Hg (Jun 21, 11:00 PM)
Low59 °F (Jun 29, 1:00 AM)40% (Jun 24, 1:00 PM)29.21 "Hg (Jul 1, 10:00 AM)
Average70 °F75%29.69 "Hg
* Reported Jun 21 3:00 PM — Jul 6 3:00 PM, Nagano, Weather by CustomWeather, © 2015

Note: Actual official high and low records may vary slightly from our data, if they occured in-between our weather recording intervals... More about our weather records

Advertising

Nagano weather history for previous 24 hours

 ConditionsComfort  
Time TempWeatherWind HumidityBarometerVisibility
3:00 PM
Mon, Jul 6
71 °FOvercast.8 mph71%29.85 "Hg9 mi
2:00 PM72 °FMild.8 mph72%29.83 "HgN/A
1:00 PM72 °FMild.6 mph71%29.84 "HgN/A
11:00 AM72 °FMild.7 mph69%29.86 "HgN/A
10:00 AM71 °FMild.6 mph70%29.85 "HgN/A
9:00 AM69 °FOvercast.7 mph73%29.88 "Hg6 mi
8:00 AM68 °FMild.5 mph83%29.89 "HgN/A
7:00 AM66 °FMild.No wind91%29.90 "HgN/A
6:00 AM65 °FMild.2 mph94%29.91 "HgN/A
5:00 AM65 °FMild.2 mph93%29.91 "HgN/A
4:00 AM65 °FMild.1 mph90%29.89 "HgN/A
3:00 AM65 °FOvercast.2 mph89%29.87 "Hg6 mi
2:00 AM66 °FMild.1 mph88%29.88 "HgN/A
1:00 AM66 °FMild.1 mph88%29.87 "HgN/A
12:00 AM67 °FMild.1 mph85%29.87 "HgN/A
11:00 PM
Sun, Jul 5
67 °FMild.3 mph85%29.87 "HgN/A
10:00 PM68 °FMild.1 mph82%29.87 "HgN/A
9:00 PM69 °FOvercast.1 mph77%29.86 "Hg6 mi
8:00 PM70 °FMild.2 mph74%29.84 "HgN/A
7:00 PM71 °FMild.3 mph72%29.83 "HgN/A
6:00 PM72 °FMild.7 mph72%29.80 "HgN/A
5:00 PM74 °FMild.7 mph71%29.79 "HgN/A
4:00 PM76 °FMild.6 mph56%29.78 "HgN/A
Weather by CustomWeather, © 2015

See weather overviewHow to use our weather pages